Regional Weather Roundup
Issued by NWS

Home | Current Version | Previous Version | Graphics & Text | Print | Product List | Glossary On
Versions: 1 2 3 4 5 6 7 8 9 10 11 12 13 14 15 16 17 18 19 20 21 22 23 24 25 26 27 28 29 30 31 32 33 34 35 36 37 38 39 40 41 42 43 44 45 46 47 48 49 50
000
ASUS43 KFSD 260002
RWRSD

WEATHER ROUNDUP FOR SOUTH DAKOTA
NATIONAL WEATHER SERVICE SIOUX FALLS SD
600 PM CST THU DEC 25 2014

NOTE: "FAIR" INDICATES FEW OR NO CLOUDS BELOW 12,000 FEET WITH NO
SIGNIFICANT WEATHER AND/OR OBSTRUCTIONS TO VISIBILITY.


SDZ001>005-009-010-012>017-260100-
NORTHWEST AND NORTH CENTRAL SOUTH DAKOTA

CITY           SKY/WX    TMP DP  RH WIND       PRES   REMARKS
BUFFALO          N/A     22  17  81 N14       29.85R WCI   9
FAITH            N/A     24  18  77 N21       29.88R WCI   9
MOBRIDGE       CLOUDY    28  22  78 N15       29.88R WCI  16
$$

SDZ012>016-024>037-041>051-057-063-072>074-260100-
SOUTHWEST AND SOUTH CENTRAL SOUTH DAKOTA

CITY           SKY/WX    TMP DP  RH WIND       PRES   REMARKS
RAPID CTY ARPT CLOUDY    25  21  85 N21G28    29.86R WCI  11
PIERRE         CLOUDY    28  24  85 N15       29.85R WCI  16
CUSTER         FLURRIES  19  12  74 N9        29.72R WCI   8
ELLSWORTH AFB  FLURRIES  25  21  86 N18G24    29.86R WCI  11
PHILIP         LGT SNOW  28  24  85 N8        29.88R FOG     WCI  20
PINE RIDGE     LGT SNOW  25  20  81 N16       29.82R WCI  12
WINNER         LGT SNOW  28  25  88 N15       29.83R FOG     WCI  16
$$

SDZ004>011-016>023-039-040-260100-
NORTHEAST SOUTH DAKOTA

CITY           SKY/WX    TMP DP  RH WIND       PRES   REMARKS
ABERDEEN       CLOUDY    29  22  75 N13       29.87R WCI  19
WATERTOWN      LGT SNOW  25  23  92 N18       29.79R FOG     WCI  11
SISSETON         N/A     27  25  92 N10       29.85R WCI  17
$$

SDZ017-020-022-023-036>040-048>070-260100-
SOUTHEAST SOUTH DAKOTA

CITY           SKY/WX    TMP DP  RH WIND       PRES   REMARKS
SIOUX FALLS    DRIZZLE   32  30  92 NE14      29.76R FOG     WCI  22
HURON          LGT SNOW  26  23  88 N20G25    29.83R FOG     WCI  12
MITCHELL       CLOUDY    30  27  88 N15G24    29.81R WCI  19
YANKTON        CLOUDY    36  28  75 N14       29.74R
$$

ABBREVIATIONS USED IN REMARKS
   TC - TEMPERATURE IN CELSIUS
  WCI - WIND CHILL INDEX
   HX - HEAT INDEX
  VSB - VISIBILITY




USA.gov is the U.S. government's official web portal to all federal, state and local government web resources and services.